Hourly Data Report for March 23, 2021

TORONTO CITY
ONTARIO
Current Station Operator: ECCC - MSC

43°40'00.000" N
79°24'00.000" W
112.50 m
6158355
71508
XTO

Download Data

Hourly Data (March 2021)
Hourly Data Report for March 23, 2021
TIME
LST
Temp Definition
°C
Dew Point Definition
°C
Rel Hum Definition
%
Precip. Amount Definition
mm

Wind Dir Definition
10's deg

Wind Spd Definition
km/h
Visibility Definition
km
Stn Press Definition
kPa
Hmdx Definition


Wind Chill Definition


Weather Definition


00:00 9.1 -4.6 38 0.0       100.79     LegendNANA
01:00 9.5 -4.3 38 0.0       100.77     LegendNANA
02:00 9.4 -4.9 36 0.0       100.80     LegendNANA
03:00 8.3 -5.0 39 0.0       100.80     LegendNANA
04:00 7.8 -4.4 42 0.0       100.81     LegendNANA
05:00 6.9 -4.3 45 0.0       100.80     LegendNANA
06:00 6.7 -4.2 45 0.0       100.82     LegendNANA
07:00 7.1 -4.1 45 0.0       100.88     LegendNANA
08:00 9.7 -2.2 43 0.0       100.87     LegendNANA
09:00 12.6 -6.3 26 0.0       100.87     LegendNANA
10:00 13.7 -5.9 25 0.0       100.88     LegendNANA
11:00 13.7 -6.1 25 0.0       100.86     LegendNANA
12:00 14.3 -5.4 25 0.0       100.84     LegendNANA
13:00 14.0 -3.6 29 0.0       100.74     LegendNANA
14:00 14.1 -5.1 26 0.0       100.64     LegendNANA
15:00 14.7 -4.3 27 0.0       100.56     LegendNANA
16:00 12.7 -6.2 26 0.0       100.52     LegendNANA
17:00 12.8 -6.5 25 0.0       100.50     LegendNANA
18:00 12.9 -7.3 24 0.0       100.49     LegendNANA
19:00 12.6 -8.1 23 0.0       100.43     LegendNANA
20:00 12.5 -6.5 26 0.0       100.40     LegendNANA
21:00 12.6 -6.4 26 0.0       100.38     LegendNANA
22:00 11.9 -4.9 30 0.0       100.31     LegendNANA
23:00 11.5 -3.9 34 0.0       100.33     LegendNANA

Notes on Data Quality.

Legend

  • E = Estimated
  • M = Missing
  • NA = Not Available*
  • [empty] = Indicates an unobserved value
Date modified: